Wind_Speed
2 2 4 4 5 6 7 7 7 8 7 7 6 6 5 4 4 5 5 4 4 3 3 3 4 4 4 4 5 6 7 8 9 9 10 11 11 11 11 10 10 9 10 11 12 15 18 21 23 25 26 27 27 27 26 25 25 26 25 23 22 23 24 25 26 31 35 35 33 32 31 29 27 26 27 29 28 25 23 23 23 23 22 21 20
1 1 3 3 3 4 5 7 8 8 8 8 7 7 6 5 5 4 5 5 4 3 2 2 2 3 3 3 4 4 5 7 8 9 10 11 12 13 13 13 13 12 11 11 12 13 15 17 21 24 26 27 28 29 28 28 28 28 27 25 23 24 24 24 24 27 33 37 35 33 32 31 29 27 27 29 30 28 24 24 24 24 23 22 22
1 1 2 3 3 2 3 5 6 7 8 9 8 9 9 8 8 7 7 7 7 6 6 5 4 4 4 4 5 5 5 6 8 9 10 11 12 12 13 14 15 15 14 14 14 14 14 15 17 21 25 26 28 29 29 29 29 30 30 28 25 25 24 24 24 24 27 33 36 35 34 33 31 29 28 28 29 30 28 25 25 26 24 24 24
3 3 2 0 1 1 2 3 4 5 6 8 9 9 10 10 11 10 10 10 10 10 9 9 8 8 7 6 6 7 8 8 8 9 10 11 12 12 13 14 15 16 16 16 16 16 16 16 16 18 22 25 27 29 30 29 29 30 30 30 28 27 26 25 25 25 25 28 32 36 36 35 34 32 29 29 29 30 30 28 26 26 26 26 25
5 5 5 4 3 2 1 2 3 4 4 5 7 8 9 10 11 11 12 12 12 12 12 12 12 12 12 11 10 10 10 10 10 11 11 11 12 13 14 15 15 16 17 18 18 18 18 18 18 18 19 22 25 26 28 29 29 29 30 30 30 29 28 27 27 27 27 27 28 33 36 37 37 35 32 31 31 31 31 31 29 27 28 28 27
7 7 7 7 6 5 3 3 3 4 4 5 5 6 7 8 9 10 11 12 13 14 14 14 15 15 15 15 15 14 14 14 14 14 14 14 13 14 14 15 16 17 17 18 19 19 20 20 21 21 20 21 24 25 26 28 29 30 31 31 30 30 30 29 29 30 29 29 28 29 33 36 38 37 37 34 32 34 34 34 32 30 31 31 29
8 8 8 8 7 6 5 4 4 4 5 5 5 5 6 6 7 8 9 10 11 12 14 15 16 16 17 17 17 18 18 18 18 18 18 18 17 16 16 16 17 18 18 19 20 20 21 22 22 23 23 23 24 25 25 25 28 29 31 32 31 31 32 31 30 32 32 31 30 29 30 33 36 37 38 37 36 37 38 36 33 31 31 33 32
9 9 9 9 9 8 6 5 5 4 4 4 5 5 5 6 6 7 8 9 10 11 12 14 15 16 17 18 19 19 20 20 21 21 21 21 21 21 20 19 20 20 20 20 21 22 22 23 24 24 25 25 25 26 26 25 26 27 29 32 33 32 33 33 32 33 34 33 33 32 31 31 34 37 37 37 39 40 39 36 32 31 28 30 32
10 10 10 10 10 10 9 8 7 6 6 5 5 5 5 6 6 7 8 9 10 11 12 13 14 15 17 18 19 20 20 21 22 22 23 23 24 24 24 23 23 23 23 23 22 23 23 24 25 26 27 27 27 27 28 28 27 27 27 30 33 33 33 34 34 34 35 34 34 35 34 33 32 34 35 37 40 41 38 35 34 33 28 27 30
12 12 11 11 11 11 11 10 10 9 9 8 8 7 7 7 8 8 9 9 10 11 12 13 14 16 17 18 19 20 21 21 22 23 24 24 25 25 26 26 26 26 27 27 26 25 25 25 26 27 28 29 29 29 29 31 30 29 27 27 31 33 34 35 35 36 37 36 35 36 36 35 34 33 33 36 40 40 37 35 34 34 31 30 30
13 13 13 12 12 12 12 11 11 11 11 11 11 10 10 10 9 10 10 11 11 12 12 12 14 15 17 18 19 20 21 22 23 23 24 25 25 26 27 28 28 29 29 30 30 29 29 28 27 27 28 29 30 31 31 32 33 32 30 29 29 32 34 37 37 37 38 38 37 38 38 37 36 34 34 35 38 38 38 36 36 35 33 33 31
12 13 14 13 13 13 13 13 12 12 12 12 13 13 13 12 12 12 12 13 13 13 14 14 14 14 15 17 18 20 21 22 23 24 25 25 26 27 27 28 29 30 31 32 32 33 33 32 31 30 29 29 29 31 32 32 33 34 34 32 30 31 33 36 39 39 39 40 39 39 40 39 38 36 36 37 36 36 38 37 37 38 37 35 33
13 13 14 14 14 14 14 14 14 14 14 14 14 14 15 15 15 15 15 15 15 15 16 16 16 16 16 17 18 19 21 22 24 24 25 27 27 28 28 29 30 31 32 33 33 34 34 35 35 34 33 31 30 30 31 33 33 35 36 35 33 32 32 34 38 39 40 41 41 41 41 40 39 38 38 39 37 34 37 38 38 41 41 39 36
13 13 14 15 15 15 15 15 15 16 16 16 16 16 16 16 16 17 17 17 17 18 18 18 19 19 19 19 20 20 21 23 24 25 26 27 28 29 30 30 32 33 34 34 35 35 36 36 36 36 36 35 34 32 32 32 33 34 36 37 37 35 34 34 36 38 39 41 42 42 42 42 40 40 40 41 40 36 36 39 40 42 44 42 39
15 14 15 15 16 16 16 17 17 17 17 18 18 18 18 18 18 18 18 19 19 20 20 20 21 21 21 21 22 22 22 23 24 26 27 28 29 30 30 31 31 33 34 35 36 37 37 38 38 38 38 38 37 36 35 34 34 35 36 37 39 39 38 36 35 36 38 40 42 43 42 43 42 41 42 42 42 39 38 40 40 41 43 44 43
16 15 15 16 17 17 18 18 18 18 19 19 20 20 20 20 20 20 21 21 21 22 22 23 23 23 23 24 24 24 24 24 25 26 28 29 30 31 32 33 33 33 34 35 35 36 38 38 39 39 40 40 40 39 38 37 36 36 36 37 39 41 41 40 37 36 37 38 41 43 43 43 43 43 43 43 44 42 41 40 40 41 42 44 45
17 17 16 17 18 19 19 19 20 20 20 21 21 22 22 22 23 23 23 23 23 24 24 25 25 25 25 26 26 25 25 26 26 27 28 29 31 32 33 34 35 35 35 35 36 36 37 38 39 40 41 41 41 41 41 40 39 39 39 38 38 40 42 43 41 38 37 37 39 41 43 43 44 44 44 44 45 45 44 42 40 41 42 44 46
19 18 18 18 19 20 20 21 21 21 22 22 23 24 24 25 25 25 25 25 26 26 26 27 27 27 28 28 28 28 28 27 28 28 29 30 31 32 34 35 36 37 37 37 37 37 37 37 38 40 41 42 43 43 43 42 41 41 41 41 40 41 42 44 44 42 40 38 38 40 41 43 44 45 45 45 46 46 46 45 42 42 42 43 46
20 20 19 19 20 21 21 22 22 22 23 24 25 25 26 27 27 28 28 28 28 28 28 29 29 30 30 30 30 30 30 30 30 30 30 31 32 33 34 36 37 38 40 40 39 39 39 38 38 39 40 42 44 45 44 44 44 43 43 43 43 43 43 44 45 45 44 42 40 39 39 41 44 46 46 46 48 48 47 47 45 43 43 42 46
21 21 21 21 22 23 23 23 23 24 24 25 26 27 28 29 29 30 30 30 31 31 31 31 32 32 32 33 33 33 33 33 33 33 33 34 34 35 36 37 38 39 42 43 43 42 41 40 40 40 40 41 42 44 45 46 46 46 46 45 45 45 45 45 45 46 46 45 44 41 39 40 43 47 49 48 49 50 48 48 47 44 44 43 44
22 22 22 23 24 24 24 24 24 25 26 27 28 29 30 30 31 32 32 33 33 33 33 34 34 34 35 35 36 36 37 37 37 37 37 37 38 38 39 39 40 40 42 44 45 45 45 44 43 42 42 41 42 43 45 47 48 48 48 48 47 47 47 47 47 47 47 47 46 44 42 41 41 45 49 50 51 52 51 49 48 46 45 45 43
23 23 24 26 26 26 25 25 26 27 28 28 29 30 31 32 33 34 34 35 35 35 36 36 36 37 38 38 39 39 40 40 41 41 41 41 41 42 42 43 43 43 43 44 45 47 47 47 46 45 45 44 44 44 44 46 48 49 50 50 50 49 49 49 48 48 48 49 48 47 46 44 42 44 47 50 53 53 53 51 49 48 47 46 45
25 26 27 28 27 26 26 26 27 28 29 30 31 31 32 33 33 35 36 36 37 37 37 38 38 39 40 40 41 42 42 43 43 44 44 45 45 45 45 46 46 46 46 46 47 48 48 49 49 48 48 47 47 47 47 47 48 50 51 52 51 51 51 51 51 50 49 50 50 50 49 48 46 45 46 49 54 55 56 54 51 50 50 48 48
27 28 28 28 27 26 26 27 28 30 30 31 32 33 33 34 34 35 36 36 37 37 38 38 39 40 41 42 43 44 44 45 45 45 46 47 48 48 48 48 49 49 49 49 50 50 50 50 51 51 51 50 50 50 50 50 49 51 53 54 53 53 53 53 52 52 51 51 52 52 51 50 50 48 47 48 52 56 58 57 54 53 53 51 50
29 29 28 28 27 27 27 28 30 31 32 32 33 34 34 35 35 36 36 36 37 37 38 39 40 41 42 43 44 45 46 46 47 47 48 49 50 51 51 51 51 52 52 52 53 53 53 53 53 53 54 54 54 53 53 53 53 53 54 56 56 55 55 54 54 54 53 52 53 53 53 52 52 52 50 49 51 55 58 58 57 55 55 54 51
29 28 28 28 28 29 29 30 31 32 32 33 34 35 35 36 36 36 37 36 37 37 38 39 41 42 43 45 46 47 48 48 48 49 49 50 51 52 53 54 54 55 55 55 55 56 56 57 57 57 57 57 57 57 57 56 56 56 57 57 59 59 58 57 56 56 55 54 54 54 55 54 54 54 53 52 52 53 57 59 59 58 57 55 53
29 29 28 29 30 30 30 31 31 32 32 33 34 35 36 37 37 38 38 37 38 38 39 40 42 43 44 46 47 48 49 50 50 50 51 52 53 54 55 56 57 58 58 58 58 59 59 59 60 60 61 61 61 60 61 60 60 59 59 60 61 61 61 60 59 58 57 57 55 55 56 56 56 56 55 56 55 54 55 58 59 59 57 55 54
29 29 29 30 31 31 30 30 31 31 32 33 34 35 37 38 39 40 39 39 39 40 40 41 43 44 45 47 48 49 50 50 51 51 52 53 54 55 56 58 59 60 61 61 61 62 62 62 63 63 64 64 64 64 64 64 64 63 62 62 63 64 64 64 63 61 60 59 58 57 57 58 58 57 57 57 58 57 54 55 58 60 59 57 56
31 31 30 31 31 30 30 30 31 31 32 34 35 36 38 39 41 41 41 40 40 41 41 42 43 45 46 47 48 49 50 50 50 51 53 55 56 57 57 59 60 61 63 64 64 64 65 66 66 66 66 66 67 67 67 67 67 67 66 65 65 66 66 66 66 65 63 62 61 60 59 59 59 59 59 59 60 61 57 54 56 60 60 59 58
33 32 32 33 32 32 32 32 33 34 34 36 37 39 40 41 42 42 42 41 41 41 42 43 44 46 47 48 48 49 50 50 51 52 54 56 58 60 60 61 61 62 63 65 66 67 67 68 68 68 69 69 69 69 69 69 70 70 69 68 67 67 68 69 69 69 68 66 64 62 61 60 60 61 61 61 61 63 61 57 55 58 61 61 60
34 34 35 35 35 34 34 34 35 36 37 38 40 41 42 42 43 43 42 42 42 43 44 46 47 48 48 49 49 50 51 51 52 53 55 57 60 62 64 64 64 64 65 66 67 69 69 70 70 70 70 71 71 71 72 71 72 72 72 71 70 69 70 71 72 72 72 70 68 66 64 62 61 61 62 63 63 64 64 61 58 57 59 63 63
35 36 37 37 36 35 35 35 36 38 39 41 43 43 43 43 43 43 43 43 45 45 47 48 50 51 51 51 51 51 52 53 54 56 58 59 62 64 65 67 67 67 67 67 68 69 70 71 71 72 72 72 73 73 73 73 72 72 72 71 71 70 70 72 74 75 75 74 72 70 68 65 63 62 63 65 64 65 65 63 62 59 58 61 63
37 38 38 38 37 36 36 37 39 40 42 43 44 44 43 43 43 43 44 46 47 47 49 50 51 53 53 53 53 53 54 55 56 58 60 62 64 66 67 68 68 69 69 69 68 68 69 70 71 71 71 70 70 70 70 69 69 69 69 68 69 69 70 72 74 76 78 77 76 74 71 69 66 64 64 66 66 66 65 65 65 63 60 59 62
38 38 38 37 37 37 38 39 41 43 44 45 45 44 44 44 45 46 47 48 48 49 51 51 53 54 54 54 54 55 55 57 58 60 63 65 67 68 69 70 70 70 71 71 70 69 68 67 67 68 68 68 67 67 67 67 67 67 66 66 66 66 68 70 72 76 79 80 79 78 75 72 70 67 66 66 68 68 67 66 66 66 64 60 61
38 38 38 37 38 39 40 42 43 45 45 46 45 45 46 47 47 47 48 49 50 52 52 52 54 55 55 55 55 56 57 59 60 63 65 67 69 71 72 72 72 72 72 72 73 72 71 69 68 68 69 70 70 70 70 70 70 69 68 68 67 66 67 68 71 75 78 81 82 81 79 76 73 70 68 67 69 70 70 68 66 67 67 64 63
38 38 38 39 40 41 42 44 45 46 46 46 47 48 49 49 48 49 49 51 53 53 53 53 55 56 56 56 57 58 59 60 63 65 68 70 72 73 74 74 73 73 73 72 72 72 73 73 72 72 71 71 72 72 73 73 73 73 73 72 70 70 69 68 69 72 76 80 82 83 82 80 77 73 70 69 69 71 72 71 68 67 67 67 66
39 40 41 42 42 43 44 44 45 46 47 49 50 50 49 49 49 50 51 53 54 53 53 54 56 56 57 58 58 59 61 63 65 68 71 73 75 76 76 76 75 75 74 73 71 70 71 71 72 72 72 71 72 73 75 76 77 76 75 74 74 73 72 71 70 71 74 78 81 83 84 83 81 77 72 70 71 71 72 73 71 68 66 68 69
42 42 43 44 44 44 44 45 46 48 49 50 50 49 49 49 50 51 53 54 53 53 54 56 57 58 58 59 60 61 63 66 68 71 74 76 78 78 78 77 76 75 73 72 71 70 70 70 70 71 72 73 74 75 77 80 81 80 77 74 74 75 75 75 74 74 74 76 79 83 84 84 83 81 76 72 72 72 72 73 73 71 68 68 70
43 44 44 44 44 44 45 46 47 48 49 49 49 48 49 50 51 52 53 53 53 54 56 57 58 59 60 61 62 63 66 68 71 74 77 79 79 79 78 77 75 73 71 69 70 70 70 70 70 71 72 74 76 78 80 81 81 80 79 75 73 73 75 76 77 77 76 76 77 81 84 85 85 83 79 75 73 73 73 73 73 73 70 68 69
43 44 44 44 44 45 46 47 48 48 49 48 49 49 50 51 52 53 53 53 55 56 58 58 59 60 61 63 64 66 69 72 74 77 79 80 80 79 78 76 73 71 68 67 67 68 69 70 71 72 73 74 76 79 80 80 79 77 77 75 73 72 73 75 77 79 79 78 77 80 83 86 86 85 82 77 74 74 75 74 73 73 71 69 70
45 45 44 44 45 46 47 48 48 49 49 49 50 51 52 52 53 53 53 54 56 57 58 59 60 61 63 65 67 69 72 75 77 79 81 82 81 80 78 75 73 70 68 66 66 66 68 70 71 72 74 74 76 78 79 78 77 75 74 74 73 71 71 73 75 78 80 80 79 80 83 85 87 86 84 80 76 74 75 76 75 73 72 71 71
46 46 46 46 47 47 48 49 49 50 51 51 52 52 52 53 53 53 54 56 57 57 58 59 60 63 65 67 70 72 75 78 80 82 83 83 83 81 79 75 73 70 68 66 65 66 67 70 71 72 73 74 76 77 78 77 76 76 75 75 73 71 71 72 72 75 79 81 81 82 83 85 87 86 84 83 79 76 74 76 77 75 73 71 72
46 47 47 47 48 48 48 49 50 51 52 53 53 52 53 54 54 54 56 57 57 57 58 59 61 63 66 68 71 74 77 81 83 85 85 85 84 81 79 76 74 71 68 66 66 66 68 70 72 72 73 74 75 76 76 77 77 77 78 78 75 74 73 72 71 73 76 80 82 83 84 85 86 86 85 84 82 79 76 75 77 78 75 72 72
46 47 47 47 48 48 49 50 51 53 53 53 53 53 54 55 55 56 57 58 58 57 58 60 62 64 67 70 73 76 79 83 85 87 87 86 85 83 80 77 74 71 68 67 66 68 69 71 74 74 74 75 75 75 75 76 77 78 80 81 80 80 78 74 75 75 75 79 83 85 86 87 86 86 85 84 83 81 78 76 76 78 77 74 72
45 46 47 46 47 48 49 51 53 54 54 53 53 54 56 57 57 58 59 59 58 58 59 61 63 65 69 72 75 78 81 85 87 88 88 88 87 85 82 78 74 71 68 67 68 69 71 73 75 76 77 77 77 76 75 75 77 79 82 84 84 86 85 81 82 81 78 80 83 86 88 89 87 86 85 85 83 82 80 78 77 77 77 75 72
45 46 46 46 48 50 51 53 54 54 54 53 54 56 58 59 59 59 59 59 58 59 61 63 65 67 71 74 78 82 85 87 88 89 89 88 87 85 82 79 75 72 70 69 69 71 72 74 75 76 77 79 80 79 77 77 79 81 84 86 88 90 89 88 88 87 84 83 84 86 89 90 89 87 86 85 83 82 80 79 79 78 78 76 73
46 46 47 49 51 52 54 54 54 54 54 55 56 58 60 60 60 60 60 60 59 61 63 65 67 69 73 76 81 85 88 89 90 90 90 89 87 84 82 79 75 73 71 71 72 72 74 74 75 76 78 80 83 83 82 80 82 84 86 89 91 92 92 92 93 91 90 88 86 87 89 90 90 89 87 86 84 82 81 79 79 78 77 78 75
47 47 49 51 53 53 54 55 55 56 56 57 59 60 61 61 61 61 61 61 61 63 65 67 70 73 76 80 83 87 90 91 92 91 91 89 87 84 81 78 75 73 72 73 73 74 75 76 76 77 79 82 85 87 86 85 85 87 89 93 94 94 94 93 94 95 93 92 89 87 89 91 91 90 88 86 84 83 81 79 80 80 78 77 76
48 49 51 52 52 53 55 56 58 58 58 59 60 61 62 61 62 63 62 63 64 66 68 70 73 76 79 83 86 89 91 92 92 92 91 89 87 84 81 78 75 73 73 74 75 76 76 77 78 79 82 85 88 88 88 88 88 89 91 95 96 94 92 90 90 92 93 92 91 88 88 91 92 91 89 87 85 83 82 81 81 82 79 78 76
48 50 51 51 53 55 57 58 60 60 60 60 61 61 62 62 63 63 63 64 66 68 70 73 77 80 83 86 88 91 92 93 92 92 90 88 86 83 80 78 76 75 75 75 76 77 78 79 81 82 84 86 88 88 88 88 88 89 92 95 93 88 85 83 83 85 87 89 90 88 88 91 92 92 90 87 84 83 82 81 81 82 82 80 77
49 50 51 52 55 57 59 60 61 61 61 61 61 61 62 63 64 64 65 66 68 70 73 76 79 82 85 88 90 91 92 92 92 91 89 87 85 82 80 78 77 76 76 77 78 80 81 83 84 85 86 86 87 87 88 88 88 89 93 91 85 80 78 75 75 77 79 82 85 86 88 92 93 92 90 87 83 82 82 80 77 78 82 83 79
Wind_Direction
92 95 73 48 18 7 0 357 358 360 1 3 8 13 19 21 21 16 13 20 38 55 61 57 49 38 32 22 7 355 344 335 326 318 309 303 297 292 290 290 290 288 283 279 271 264 260 256 255 257 259 261 263 265 265 264 265 265 263 262 262 261 259 258 249 234 229 227 225 227 226 227 230 230 228 226 223 225 235 238 235 232 227 225 222
126 96 84 77 40 14 358 348 345 344 343 343 344 343 344 347 350 352 349 345 347 351 356 356 350 348 351 351 348 344 338 333 330 326 321 315 309 303 298 294 292 291 287 284 280 274 268 261 255 254 256 258 260 262 262 263 264 265 264 262 262 261 261 261 257 243 232 228 227 228 228 226 226 229 229 229 227 225 231 239 238 234 229 225 223
210 164 87 86 70 36 12 354 343 336 332 332 331 327 325 328 330 331 331 331 330 331 330 323 315 308 306 310 315 315 313 315 319 323 322 319 315 311 305 301 296 293 290 287 284 281 278 272 263 257 256 257 258 260 261 261 262 264 265 263 261 261 262 261 261 256 243 234 231 230 230 228 224 226 229 230 231 229 230 237 240 236 231 225 223
315 294 296 30 75 58 31 15 360 343 330 327 326 323 321 319 318 318 319 320 321 324 326 326 323 319 312 306 304 303 302 300 302 307 308 309 310 310 309 305 301 296 292 289 285 282 280 278 274 266 262 260 259 259 260 260 259 261 263 263 261 260 261 261 261 261 256 244 238 235 232 231 226 224 227 230 233 234 233 235 239 238 233 226 223
328 317 309 304 296 295 340 19 21 8 351 338 331 328 326 323 318 314 311 310 310 313 317 319 319 320 320 317 314 310 309 306 300 298 297 298 299 302 304 303 303 302 298 294 289 285 281 278 277 273 267 266 264 262 260 260 259 258 259 260 259 258 258 260 261 261 260 253 246 241 236 233 229 224 225 228 232 236 236 236 236 236 234 227 222
329 321 312 306 299 296 305 343 8 11 6 357 347 339 332 328 323 318 312 307 303 303 305 308 309 311 313 313 313 311 310 311 309 304 302 300 298 298 298 298 299 300 300 297 294 290 285 280 277 275 271 268 269 267 264 261 260 258 257 256 255 255 254 255 258 260 260 257 252 250 244 238 232 226 225 226 229 234 236 236 233 232 232 227 222
323 318 311 305 301 298 299 317 341 355 360 353 347 339 332 326 320 318 314 310 305 300 297 298 300 301 304 306 307 306 305 306 305 304 302 302 301 299 298 296 293 293 296 297 296 294 291 286 281 277 274 270 269 270 269 265 262 259 256 255 251 250 250 249 251 255 257 258 255 254 253 246 237 231 230 229 228 232 233 234 231 228 229 226 221
307 308 306 305 303 302 302 303 309 322 334 338 339 332 327 321 313 310 306 304 303 300 296 294 293 294 295 298 299 299 299 298 298 298 297 297 297 296 295 296 294 293 292 293 295 295 294 292 288 282 278 274 270 270 271 269 265 262 257 256 252 247 247 247 246 249 252 255 256 255 256 253 244 237 236 235 231 231 231 230 230 228 227 224 220
297 301 302 304 305 304 302 298 296 295 299 304 311 314 313 309 306 303 299 296 295 296 294 292 291 289 290 291 292 293 293 293 292 292 292 292 292 293 292 292 293 293 292 290 290 292 292 291 292 289 285 280 275 272 271 271 268 265 261 257 255 249 245 245 244 245 247 250 254 256 256 257 253 245 241 239 235 232 231 229 229 230 229 228 224
295 297 300 302 303 303 302 299 296 292 291 292 292 294 296 295 295 293 291 290 289 289 289 289 288 287 286 285 285 286 287 288 288 288 288 288 289 290 291 290 289 290 291 291 290 289 289 288 289 290 290 288 283 276 272 271 270 268 264 259 257 253 247 244 242 243 245 246 249 253 255 256 256 253 247 241 238 233 232 228 228 231 229 228 228
295 292 293 296 300 301 300 298 295 292 289 288 287 287 288 287 287 286 285 285 284 284 285 286 286 285 283 281 279 279 280 281 282 283 284 285 285 286 287 288 288 287 287 288 289 288 288 287 285 285 286 287 287 284 277 273 272 270 267 262 258 256 250 245 241 238 241 243 245 248 250 253 254 254 250 244 241 236 233 228 225 230 229 226 225
297 292 289 289 294 297 297 295 292 290 287 285 282 281 281 282 281 281 281 282 282 282 283 284 285 286 285 283 279 276 275 275 276 277 278 279 280 281 282 283 285 285 285 285 286 286 286 286 285 283 281 280 282 283 282 278 275 272 270 266 261 258 254 249 244 238 237 239 241 243 245 248 250 252 250 247 245 240 235 230 225 228 230 228 225
300 294 288 287 289 293 294 293 291 289 287 285 282 278 276 276 277 277 277 277 278 280 282 284 285 286 286 286 284 280 276 274 274 274 274 275 275 276 277 278 279 280 281 282 283 283 283 283 284 283 281 279 277 276 278 279 277 274 271 269 266 261 257 253 249 243 238 236 237 240 241 243 246 249 250 249 247 243 237 232 228 228 229 229 227
298 294 289 286 287 289 291 292 291 289 288 285 283 281 278 277 277 277 277 276 276 276 278 281 283 285 286 286 286 285 282 278 275 274 273 273 273 273 274 274 275 275 276 277 279 280 281 281 281 281 280 279 277 274 272 273 273 273 273 271 268 265 261 257 253 249 243 239 236 236 238 241 241 245 249 250 248 245 240 235 231 230 230 230 228
294 293 291 289 288 288 289 291 291 290 288 286 284 282 280 280 280 280 279 279 278 277 276 276 278 280 283 284 285 286 285 282 278 276 275 274 273 272 271 271 271 272 272 273 274 275 277 277 278 278 278 277 276 274 272 270 269 269 270 271 270 267 264 260 257 254 249 244 240 237 236 238 239 241 245 249 249 246 243 238 235 234 233 232 230
292 292 292 290 289 287 288 290 291 291 289 287 285 283 281 280 279 280 280 280 281 281 280 279 279 279 280 282 284 285 286 285 282 279 277 275 274 273 272 271 270 270 270 271 271 271 272 273 274 275 275 275 274 273 272 270 269 267 267 267 268 269 267 264 260 257 254 249 245 241 237 237 237 238 241 245 248 247 244 240 237 237 235 233 231
292 292 291 291 289 288 288 290 291 291 290 287 285 283 281 280 279 278 279 279 280 281 282 282 282 282 281 281 282 283 285 286 285 283 280 277 275 274 273 272 271 270 269 269 269 269 270 270 271 272 273 273 272 272 271 270 269 268 266 265 265 267 268 267 264 260 257 254 249 245 241 237 236 237 238 241 245 246 245 242 239 240 239 235 232
292 291 290 291 291 290 290 291 291 290 289 287 285 282 281 280 279 279 279 279 279 280 281 281 282 282 282 282 282 282 282 284 285 285 284 282 279 276 275 274 273 271 269 268 268 267 268 268 268 269 270 271 271 270 270 270 269 268 267 265 264 263 265 267 267 263 260 257 254 249 245 240 237 237 237 238 242 244 245 245 241 241 242 238 234
290 289 289 291 293 293 292 292 291 290 289 288 286 284 282 281 280 279 280 280 280 280 280 281 281 281 281 282 282 282 282 282 282 284 284 285 284 281 278 275 274 272 271 270 268 267 266 266 266 267 267 268 270 270 269 269 268 268 267 266 265 263 262 264 266 265 263 259 256 252 248 243 239 238 238 238 239 241 242 244 243 241 243 242 237
289 289 290 293 294 294 294 294 293 293 292 291 289 287 285 284 283 282 282 283 283 283 283 283 282 282 282 282 282 283 283 283 282 282 283 284 284 284 282 279 276 273 271 270 268 267 266 265 265 265 265 265 267 268 269 268 268 267 267 266 265 264 262 262 262 263 263 261 258 254 251 246 241 239 238 238 239 239 239 242 243 242 242 241 240
289 289 291 293 294 295 295 295 295 295 295 294 293 291 290 289 288 288 287 287 288 288 288 287 287 286 285 285 284 284 284 284 284 283 283 282 282 283 283 282 280 276 272 269 267 266 266 266 265 264 264 263 264 265 267 268 268 267 266 265 265 264 263 261 260 260 261 261 259 256 253 249 245 240 239 238 239 240 239 239 240 240 239 237 239
290 292 293 294 294 295 295 295 295 294 294 294 295 295 294 294 294 294 294 294 293 293 292 292 291 291 290 289 288 287 286 286 285 284 283 282 281 281 280 280 279 278 275 271 268 265 264 265 265 265 265 264 263 264 264 266 267 268 267 265 264 263 263 261 260 259 259 259 258 256 254 252 249 244 240 238 239 240 240 238 237 238 236 233 238
292 294 294 294 293 293 294 295 295 294 294 295 295 295 296 296 297 298 298 297 297 296 295 294 294 293 292 292 291 290 289 288 286 285 284 282 281 280 280 279 278 277 276 274 270 267 265 264 263 264 265 264 264 263 263 263 264 266 266 265 264 263 262 261 259 258 257 257 257 256 254 253 251 248 243 239 238 240 240 239 236 236 235 233 238
294 294 293 292 292 293 294 296 296 296 296 296 296 296 296 296 296 297 298 297 297 296 295 295 295 295 294 294 293 293 292 290 289 287 286 284 283 281 280 279 278 277 276 275 272 270 267 265 263 262 263 263 263 263 262 262 262 263 264 265 264 263 262 260 259 257 256 256 255 255 254 253 252 251 247 242 239 239 239 239 237 236 234 233 235
293 293 291 291 293 295 297 298 298 298 298 298 297 297 296 296 297 298 298 298 297 296 294 294 294 295 295 295 294 294 293 292 292 291 289 287 285 284 282 280 278 277 277 275 273 271 269 268 265 263 262 262 262 262 262 262 261 260 262 263 263 262 261 260 258 257 256 255 254 254 253 253 252 251 250 247 243 240 238 238 238 237 235 234 233
291 291 291 293 296 298 299 299 298 298 298 297 297 297 296 295 296 297 299 298 297 295 294 294 294 294 294 294 293 293 291 291 290 291 291 290 289 287 285 283 281 278 277 276 273 272 270 269 267 265 264 263 262 261 261 261 261 260 259 260 262 261 261 260 258 256 255 255 254 253 252 252 252 251 250 249 246 243 239 237 236 236 236 236 236
288 289 291 294 296 297 298 297 296 296 297 297 296 296 295 294 295 296 297 297 295 295 295 295 296 296 295 295 294 292 291 289 287 287 288 288 289 289 287 285 283 281 279 277 275 273 271 269 268 267 265 264 263 262 261 261 261 260 259 259 259 260 260 260 258 256 255 255 254 253 252 251 251 250 249 249 248 246 241 238 236 235 235 236 236
286 288 290 293 296 297 297 295 295 296 297 296 296 296 295 295 295 296 296 295 295 295 296 297 298 298 298 297 296 295 294 292 290 288 287 286 286 286 286 285 284 282 280 278 276 274 273 271 270 268 267 266 265 264 263 262 261 261 260 259 259 259 259 259 259 257 255 254 254 253 252 251 250 249 248 248 248 247 244 240 237 236 233 233 234
286 287 290 294 296 297 296 295 295 296 296 296 297 297 296 296 296 296 295 294 295 296 297 298 299 299 299 299 298 298 297 296 295 294 292 290 288 286 285 284 284 283 281 279 278 276 274 272 271 270 269 268 267 266 265 265 264 263 262 260 259 258 257 257 258 258 256 254 254 253 253 252 250 249 248 246 246 246 245 241 238 236 234 232 231
288 288 290 294 296 296 295 294 295 294 295 297 298 297 297 296 295 295 294 294 294 295 297 298 299 299 299 299 299 299 299 298 298 297 295 294 292 290 288 286 284 283 282 280 279 277 276 274 272 271 271 270 269 269 268 268 267 267 265 263 261 259 258 256 256 256 256 255 254 254 253 253 252 249 248 246 245 244 244 242 239 236 234 232 230
289 289 291 294 295 294 293 293 293 294 295 297 298 297 296 295 295 295 294 294 296 296 298 299 299 299 299 298 299 299 299 299 298 297 296 295 293 292 290 288 287 285 283 282 280 279 278 276 274 273 272 272 272 271 271 271 270 270 269 267 264 261 259 257 256 254 255 255 255 254 253 252 252 250 248 246 244 243 242 242 240 238 235 233 231
290 290 292 293 293 292 292 292 293 294 296 297 298 297 296 295 295 294 295 296 297 298 299 300 300 299 298 298 298 299 299 298 298 297 296 294 293 292 290 289 288 287 285 284 282 281 280 279 277 276 275 275 275 274 274 273 273 272 271 269 267 263 260 258 256 255 254 253 254 254 253 252 251 250 248 246 243 242 241 240 240 239 236 234 231
290 290 290 291 291 291 292 293 295 296 297 298 298 296 295 295 294 295 295 297 298 299 301 300 299 298 297 297 298 299 299 298 298 297 296 295 293 291 290 289 288 287 287 286 284 283 281 280 279 278 277 276 276 275 275 275 274 273 272 270 268 265 262 258 256 255 255 253 253 252 252 251 251 249 248 246 243 242 240 239 239 238 237 235 231
289 289 288 289 290 292 294 294 295 296 296 297 296 295 295 295 295 295 296 298 300 301 301 300 299 297 296 296 297 298 298 298 298 297 296 295 293 291 289 288 288 288 287 287 287 285 284 282 280 278 277 276 275 274 274 275 275 274 273 271 268 266 262 259 256 254 254 254 253 252 251 250 250 249 247 246 244 241 240 238 238 237 237 237 234
288 287 287 289 291 293 294 294 295 295 295 294 294 294 295 296 295 296 298 300 301 301 300 300 298 297 296 296 297 298 298 298 298 297 295 294 292 290 289 288 288 288 288 288 287 287 286 285 282 280 279 278 278 278 277 277 277 276 275 272 269 266 263 260 256 254 253 253 254 252 251 249 249 248 247 246 245 242 240 239 238 237 236 236 236
287 287 288 290 291 292 292 293 293 293 293 293 293 294 295 296 296 297 299 300 301 300 300 299 298 297 296 296 297 298 298 297 297 295 294 292 291 290 289 289 289 289 289 288 287 286 285 285 285 284 282 281 281 281 282 281 280 278 277 274 271 267 264 261 257 254 252 252 253 253 251 249 247 246 246 245 245 243 241 239 238 237 235 235 236
288 288 289 289 290 290 290 291 291 292 293 294 294 295 296 296 297 299 300 301 300 300 299 299 298 297 296 297 297 298 298 297 296 295 293 292 291 291 291 291 291 291 290 290 288 287 285 284 284 285 284 283 282 281 282 282 281 279 276 274 271 267 265 262 259 255 253 251 251 252 252 250 248 245 244 243 243 242 241 239 237 236 235 234 235
289 288 287 287 287 288 289 290 291 292 294 295 295 296 296 297 298 300 301 301 300 299 300 299 298 297 297 298 298 298 298 297 296 294 293 293 292 292 293 293 293 293 292 291 289 288 286 285 284 283 284 283 282 281 280 279 278 276 274 271 268 265 263 262 260 257 254 252 250 250 251 251 249 246 243 241 242 242 241 240 238 236 235 235 234
289 288 286 286 287 287 289 290 292 293 295 296 296 297 298 299 300 301 302 301 300 300 301 300 299 299 299 298 298 298 297 296 295 294 293 293 293 294 295 295 295 294 293 292 290 288 287 286 285 283 283 282 282 282 281 279 276 273 270 267 264 261 260 259 258 256 255 253 251 250 250 250 249 247 244 240 240 241 240 240 239 237 235 235 234
291 289 287 287 287 288 290 291 292 294 295 297 298 299 300 300 301 302 302 302 302 302 302 301 300 299 299 298 297 296 296 295 294 293 293 293 294 295 296 297 296 295 294 292 289 287 286 285 285 284 283 282 283 283 283 280 276 272 268 264 261 257 255 254 254 254 253 252 251 249 249 249 249 247 244 241 238 239 240 239 239 238 235 234 234
290 289 287 287 287 289 290 291 292 294 296 298 299 300 300 301 302 303 303 303 303 302 302 301 300 299 299 298 297 296 295 294 294 294 294 295 296 297 297 298 297 296 294 291 289 287 285 284 284 283 283 283 285 286 284 282 279 275 270 265 261 257 254 252 250 250 251 250 249 249 247 247 248 247 245 243 239 238 239 239 238 238 235 233 233
289 288 287 287 288 290 290 291 293 294 297 298 299 299 300 302 303 304 304 304 303 302 301 301 300 300 299 298 297 297 296 295 295 295 295 296 297 298 299 299 298 297 294 291 288 286 285 285 284 284 284 285 287 289 287 284 280 277 274 269 263 259 256 253 250 247 247 247 246 246 246 245 245 245 245 243 240 237 236 237 237 237 236 233 232
289 289 289 289 290 290 291 292 293 295 297 298 299 300 301 303 304 304 305 304 302 301 301 301 300 300 299 298 297 297 296 296 295 296 297 298 299 300 301 300 299 298 295 292 289 287 286 286 286 286 285 286 289 290 289 287 283 279 276 272 267 262 256 253 252 248 245 244 244 243 244 244 243 243 243 242 240 237 235 235 236 236 235 233 231
290 291 292 292 291 291 291 292 294 295 297 299 300 301 303 304 304 305 305 304 302 301 301 301 301 300 299 298 297 297 297 296 296 296 298 299 300 301 302 302 301 299 296 293 291 290 289 289 288 288 287 287 289 290 289 287 285 281 277 273 270 266 259 253 250 248 245 243 242 241 241 241 240 240 241 241 240 237 235 234 234 235 235 233 231
292 293 294 293 292 291 292 294 295 297 298 300 301 303 305 306 306 305 305 304 302 301 302 302 301 300 298 297 297 297 296 296 295 296 297 298 300 301 302 302 301 299 296 293 292 291 290 290 290 289 288 288 289 290 289 287 285 282 278 275 271 268 263 257 251 245 242 242 241 239 238 238 238 238 238 239 238 237 235 233 233 234 234 233 231
295 295 294 294 294 294 294 296 297 299 300 302 303 305 307 307 306 306 305 303 302 301 302 302 300 299 298 298 298 297 296 296 297 298 299 300 301 302 303 303 301 299 297 294 293 291 291 291 290 290 289 289 290 290 290 288 286 283 280 277 273 269 265 261 256 247 239 239 240 238 237 236 236 235 236 236 236 235 234 232 232 233 234 233 231
296 296 295 295 295 295 297 299 301 303 303 304 306 307 308 307 307 306 305 304 303 302 302 301 300 300 299 299 298 297 297 297 299 300 302 303 303 304 304 303 302 300 298 296 295 293 293 292 292 291 291 290 291 291 290 288 287 285 283 279 275 271 268 264 261 253 242 237 238 238 236 235 234 233 233 234 234 234 233 232 231 231 232 232 230
297 297 297 297 296 297 300 303 305 307 306 306 307 308 308 307 307 306 306 305 304 304 303 302 301 301 300 299 298 297 297 299 300 301 303 304 304 304 304 304 302 301 299 297 296 295 294 293 293 293 292 293 293 292 291 290 288 287 285 282 278 274 270 266 261 257 248 238 235 236 235 232 233 232 231 232 232 232 232 231 230 229 230 231 229
298 300 300 300 299 301 304 307 308 309 308 308 307 307 307 307 307 307 306 305 305 305 304 303 302 301 300 299 298 297 298 300 301 303 304 304 305 305 305 304 303 302 300 299 298 296 295 294 294 294 294 295 294 294 293 291 290 289 287 285 281 277 271 266 260 256 251 242 234 233 232 230 230 230 229 230 230 230 231 230 230 230 230 230 229
301 303 303 303 303 305 307 308 309 310 309 308 307 306 307 307 308 307 307 306 306 306 305 303 301 300 299 298 298 299 300 301 303 304 305 305 305 305 305 305 304 303 302 300 298 297 296 296 296 296 296 296 296 295 294 293 292 291 290 288 283 277 270 264 258 252 249 244 236 230 228 227 226 227 227 228 228 229 229 229 228 229 229 230 230
304 305 306 306 307 308 309 309 310 310 309 307 305 305 306 307 307 307 307 307 306 305 304 302 301 299 299 299 299 300 301 303 304 305 306 306 306 306 306 305 305 304 302 301 299 299 298 298 298 298 298 298 297 296 295 295 294 294 294 290 283 276 269 262 255 248 244 241 236 228 223 223 223 223 224 225 226 226 227 227 226 226 226 228 229
Height
5852 5852 5851 5850 5850 5850 5849 5849 5848 5848 5848 5847 5847 5846 5846 5845 5845 5845 5845 5846 5846 5846 5846 5846 5846 5846 5846 5846 5847 5847 5847 5848 5848 5848 5848 5848 5849 5849 5849 5849 5849 5849 5849 5850 5850 5850 5851 5851 5852 5852 5853 5854 5856 5857 5859 5860 5861 5861 5861 5862 5862 5861 5861 5861 5862 5863 5864 5866 5867 5868 5870 5871 5873 5873 5874 5875 5876 5877 5879 5880 5880 5881 5882 5883 5884
5853 5852 5851 5850 5850 5849 5849 5849 5849 5848 5848 5848 5847 5847 5847 5847 5846 5846 5846 5845 5846 5846 5846 5846 5846 5846 5846 5846 5846 5846 5847 5847 5847 5846 5847 5847 5847 5848 5848 5848 5848 5848 5848 5848 5848 5848 5849 5849 5850 5850 5851 5851 5852 5854 5855 5857 5858 5859 5859 5860 5860 5860 5859 5859 5860 5860 5861 5863 5865 5866 5867 5869 5871 5872 5873 5873 5874 5875 5877 5879 5880 5880 5881 5882 5883
5853 5852 5851 5850 5850 5849 5849 5849 5849 5848 5848 5848 5848 5848 5847 5847 5847 5846 5846 5846 5846 5846 5846 5846 5846 5846 5846 5846 5846 5846 5846 5846 5846 5846 5846 5846 5846 5846 5846 5847 5847 5847 5847 5847 5847 5847 5847 5847 5848 5848 5848 5849 5849 5850 5851 5853 5854 5856 5856 5857 5857 5858 5858 5858 5858 5858 5859 5861 5863 5864 5865 5867 5868 5870 5871 5872 5873 5874 5875 5877 5879 5879 5880 5881 5881
5853 5852 5851 5851 5850 5850 5849 5849 5849 5848 5848 5848 5848 5848 5847 5847 5847 5847 5847 5846 5846 5846 5846 5846 5846 5846 5846 5846 5846 5846 5846 5846 5846 5846 5846 5845 5845 5845 5845 5845 5846 5846 5846 5846 5846 5845 5845 5845 5845 5846 5846 5847 5847 5847 5848 5849 5851 5852 5853 5854 5855 5855 5856 5856 5856 5857 5857 5858 5860 5862 5863 5865 5866 5867 5869 5870 5872 5873 5874 5875 5877 5878 5879 5879 5879
5853 5852 5852 5851 5850 5850 5849 5849 5849 5848 5848 5848 5848 5848 5847 5847 5847 5847 5847 5847 5846 5846 5846 5846 5845 5845 5845 5846 5846 5846 5845 5845 5845 5845 5845 5845 5844 5844 5844 5844 5844 5844 5844 5844 5845 5845 5844 5844 5844 5844 5844 5844 5845 5845 5845 5846 5847 5848 5849 5850 5851 5852 5853 5854 5855 5855 5856 5857 5858 5859 5861 5863 5864 5866 5867 5868 5870 5872 5873 5873 5875 5876 5877 5877 5877
5853 5852 5852 5852 5851 5850 5850 5849 5849 5848 5848 5848 5847 5847 5847 5847 5847 5847 5847 5846 5846 5846 5845 5845 5845 5844 5844 5844 5844 5845 5845 5845 5845 5845 5844 5844 5844 5844 5844 5844 5843 5843 5843 5843 5843 5843 5844 5843 5843 5842 5842 5843 5843 5843 5843 5843 5844 5845 5845 5846 5848 5849 5850 5852 5852 5853 5854 5855 5856 5857 5859 5860 5862 5864 5865 5866 5868 5869 5870 5871 5871 5873 5874 5875 5875
5852 5852 5852 5851 5851 5850 5850 5849 5848 5848 5847 5847 5847 5846 5846 5846 5846 5846 5846 5846 5845 5845 5845 5844 5844 5844 5843 5843 5843 5843 5843 5843 5843 5843 5843 5843 5843 5843 5843 5843 5842 5842 5842 5842 5842 5842 5842 5842 5842 5841 5841 5841 5841 5841 5841 5841 5842 5842 5842 5843 5844 5845 5847 5848 5850 5850 5851 5853 5854 5855 5856 5858 5859 5861 5863 5864 5866 5865 5866 5867 5869 5870 5870 5871 5872
5852 5851 5851 5850 5850 5850 5849 5849 5848 5847 5847 5846 5846 5845 5845 5845 5845 5844 5844 5844 5844 5843 5843 5843 5843 5843 5842 5842 5842 5842 5842 5842 5842 5842 5842 5841 5841 5841 5841 5841 5841 5840 5841 5841 5840 5841 5841 5841 5840 5840 5840 5840 5840 5840 5839 5839 5839 5840 5840 5840 5841 5842 5843 5844 5846 5847 5848 5849 5851 5852 5853 5855 5857 5859 5861 5862 5862 5861 5862 5865 5868 5868 5869 5870 5871
5852 5851 5850 5850 5849 5849 5848 5848 5847 5847 5846 5845 5845 5844 5844 5844 5843 5843 5843 5843 5842 5842 5842 5842 5841 5841 5841 5841 5841 5841 5840 5840 5840 5840 5840 5839 5839 5839 5839 5839 5839 5838 5838 5839 5839 5839 5839 5839 5839 5838 5838 5838 5838 5838 5838 5837 5837 5837 5838 5838 5837 5839 5840 5840 5842 5843 5845 5846 5847 5848 5850 5852 5854 5856 5858 5859 5857 5857 5860 5863 5865 5866 5868 5870 5872
5850 5850 5849 5849 5848 5848 5847 5846 5846 5845 5845 5844 5844 5843 5843 5842 5842 5842 5841 5841 5841 5841 5840 5840 5840 5839 5839 5839 5839 5839 5839 5838 5838 5838 5837 5837 5837 5837 5836 5836 5837 5836 5836 5836 5836 5837 5837 5837 5837 5837 5836 5836 5836 5836 5836 5835 5835 5835 5835 5836 5835 5836 5837 5837 5838 5840 5841 5842 5844 5845 5847 5849 5851 5853 5855 5854 5853 5855 5858 5860 5862 5864 5866 5869 5870
5849 5849 5848 5848 5847 5846 5846 5845 5844 5844 5843 5843 5842 5842 5841 5841 5840 5840 5840 5839 5839 5839 5838 5838 5838 5838 5837 5837 5837 5837 5836 5836 5836 5835 5835 5835 5835 5834 5834 5834 5834 5834 5834 5833 5833 5834 5834 5835 5835 5835 5834 5834 5834 5834 5834 5834 5833 5832 5832 5833 5833 5833 5834 5834 5835 5836 5837 5839 5840 5841 5843 5845 5848 5850 5851 5850 5849 5853 5856 5858 5860 5861 5863 5865 5868
5847 5847 5846 5846 5845 5845 5844 5844 5843 5842 5842 5841 5841 5840 5839 5839 5839 5838 5838 5837 5837 5836 5836 5836 5836 5835 5835 5835 5834 5834 5834 5834 5833 5833 5832 5832 5832 5832 5832 5831 5831 5831 5831 5831 5830 5830 5831 5831 5832 5832 5832 5832 5832 5831 5831 5831 5831 5830 5830 5830 5831 5831 5831 5832 5832 5833 5834 5835 5837 5838 5840 5841 5844 5847 5847 5846 5847 5850 5853 5856 5858 5859 5860 5862 5865
5846 5845 5844 5844 5844 5843 5843 5842 5841 5841 5840 5839 5839 5838 5838 5837 5837 5836 5836 5835 5835 5834 5834 5833 5833 5833 5832 5832 5832 5831 5831 5831 5830 5830 5829 5829 5829 5828 5828 5828 5828 5828 5827 5827 5827 5827 5827 5827 5828 5828 5828 5828 5829 5829 5828 5828 5828 5827 5827 5827 5827 5828 5828 5828 5829 5831 5831 5832 5833 5835 5837 5838 5840 5843 5844 5844 5844 5847 5850 5853 5855 5855 5856 5859 5861
5844 5843 5843 5842 5842 5842 5841 5840 5840 5839 5838 5838 5837 5836 5836 5835 5835 5834 5833 5833 5832 5832 5831 5831 5830 5830 5829 5829 5828 5828 5828 5827 5827 5827 5826 5826 5826 5825 5825 5824 5824 5824 5824 5824 5824 5823 5823 5823 5823 5824 5824 5825 5825 5825 5825 5825 5825 5824 5824 5824 5824 5825 5825 5825 5826 5827 5829 5829 5830 5831 5833 5834 5837 5839 5841 5841 5842 5844 5847 5849 5851 5852 5853 5855 5858
5842 5842 5841 5841 5840 5840 5839 5838 5838 5837 5836 5836 5835 5834 5834 5833 5833 5832 5831 5830 5830 5829 5828 5828 5827 5827 5826 5826 5825 5825 5825 5824 5824 5824 5823 5823 5822 5822 5822 5821 5821 5820 5820 5820 5820 5819 5819 5819 5819 5819 5819 5820 5820 5821 5821 5821 5821 5821 5821 5821 5820 5821 5822 5823 5823 5823 5825 5826 5827 5828 5829 5831 5833 5835 5837 5838 5838 5841 5843 5846 5847 5849 5851 5853 5855
5840 5840 5839 5839 5838 5838 5837 5836 5836 5835 5834 5834 5833 5832 5832 5831 5830 5830 5829 5828 5827 5826 5826 5825 5824 5824 5823 5823 5822 5821 5821 5821 5821 5820 5820 5820 5819 5819 5818 5818 5817 5817 5816 5816 5815 5815 5815 5815 5815 5815 5815 5815 5815 5816 5817 5817 5817 5817 5817 5817 5817 5817 5818 5819 5820 5821 5821 5822 5823 5824 5826 5827 5829 5831 5833 5835 5835 5837 5839 5842 5845 5845 5847 5850 5853
5839 5838 5838 5837 5836 5836 5835 5834 5834 5833 5832 5831 5831 5830 5829 5828 5828 5827 5826 5826 5825 5824 5823 5822 5822 5821 5820 5819 5819 5818 5817 5817 5817 5816 5816 5816 5816 5815 5815 5814 5814 5813 5813 5812 5811 5811 5810 5810 5810 5810 5810 5810 5810 5811 5811 5812 5813 5813 5813 5813 5814 5813 5813 5814 5816 5818 5818 5818 5818 5820 5822 5825 5826 5827 5829 5831 5832 5833 5834 5838 5842 5842 5843 5845 5849
5837 5836 5836 5835 5834 5833 5833 5832 5831 5830 5829 5829 5828 5827 5826 5826 5825 5824 5823 5823 5822 5821 5820 5820 5819 5818 5817 5816 5815 5814 5814 5813 5813 5812 5812 5812 5812 5811 5811 5810 5810 5810 5809 5808 5807 5807 5806 5806 5806 5805 5805 5805 5805 5805 5806 5806 5807 5808 5808 5808 5809 5810 5809 5810 5811 5813 5814 5815 5815 5816 5818 5821 5823 5823 5825 5827 5828 5829 5830 5833 5837 5839 5839 5841 5843
5835 5834 5833 5833 5832 5831 5830 5829 5829 5828 5827 5826 5825 5825 5824 5823 5822 5821 5820 5819 5819 5818 5817 5816 5815 5814 5813 5812 5811 5811 5810 5809 5809 5808 5807 5807 5807 5807 5806 5806 5806 5805 5804 5804 5803 5803 5802 5802 5801 5801 5801 5800 5800 5800 5801 5801 5801 5802 5803 5803 5804 5805 5805 5805 5807 5808 5809 5811 5811 5812 5814 5816 5818 5820 5821 5822 5823 5825 5827 5829 5833 5836 5836 5838 5839
5832 5832 5831 5830 5830 5829 5828 5827 5826 5825 5824 5823 5823 5822 5821 5820 5819 5818 5817 5816 5815 5814 5813 5813 5812 5811 5810 5809 5808 5807 5806 5805 5804 5804 5803 5802 5802 5802 5801 5801 5801 5800 5799 5799 5798 5798 5797 5797 5797 5796 5796 5796 5795 5795 5795 5795 5795 5796 5797 5798 5798 5799 5800 5801 5802 5803 5804 5805 5807 5808 5809 5811 5813 5816 5817 5818 5818 5819 5822 5825 5827 5831 5832 5834 5835
5830 5829 5829 5828 5827 5826 5825 5824 5823 5822 5821 5820 5820 5819 5818 5817 5816 5815 5814 5813 5812 5811 5810 5809 5808 5807 5806 5805 5804 5803 5802 5801 5800 5799 5798 5797 5797 5796 5796 5796 5795 5795 5794 5793 5792 5792 5792 5792 5791 5791 5791 5790 5790 5790 5790 5790 5790 5790 5790 5791 5792 5794 5795 5796 5797 5799 5800 5801 5802 5804 5805 5806 5808 5810 5812 5814 5814 5814 5817 5820 5822 5825 5827 5829 5830
5827 5827 5826 5825 5824 5823 5822 5821 5820 5819 5818 5817 5817 5815 5814 5813 5812 5811 5810 5809 5808 5807 5806 5805 5804 5803 5802 5801 5800 5799 5798 5797 5796 5795 5794 5793 5792 5791 5790 5790 5789 5789 5789 5788 5787 5786 5786 5786 5785 5785 5785 5785 5785 5785 5784 5784 5784 5784 5784 5785 5786 5788 5789 5790 5791 5793 5795 5796 5797 5799 5800 5801 5803 5805 5807 5809 5809 5809 5811 5814 5818 5820 5822 5825 5825
5824 5824 5823 5822 5821 5820 5819 5818 5817 5816 5815 5814 5813 5812 5811 5810 5809 5807 5806 5805 5804 5803 5802 5801 5800 5799 5797 5796 5795 5794 5793 5792 5791 5789 5788 5787 5786 5785 5784 5784 5783 5783 5782 5782 5781 5781 5780 5780 5779 5779 5779 5779 5779 5779 5778 5779 5778 5778 5778 5779 5780 5781 5782 5783 5785 5787 5789 5791 5792 5794 5795 5796 5798 5799 5801 5803 5803 5804 5806 5808 5813 5815 5817 5819 5820
5821 5820 5820 5819 5818 5817 5816 5814 5813 5812 5811 5810 5809 5808 5807 5806 5805 5804 5803 5801 5800 5799 5798 5797 5796 5794 5793 5792 5790 5789 5787 5786 5785 5784 5783 5781 5780 5779 5778 5777 5777 5776 5776 5775 5775 5774 5774 5774 5773 5773 5772 5772 5772 5772 5772 5772 5772 5772 5772 5772 5773 5774 5775 5777 5778 5780 5783 5785 5787 5789 5790 5791 5793 5795 5796 5797 5798 5799 5801 5803 5807 5810 5811 5812 5814
5818 5817 5816 5815 5814 5813 5812 5810 5809 5808 5807 5806 5805 5804 5803 5802 5801 5799 5798 5797 5796 5795 5793 5792 5791 5790 5788 5787 5785 5784 5782 5780 5779 5778 5777 5775 5774 5772 5771 5770 5770 5769 5768 5768 5768 5767 5767 5766 5766 5766 5765 5765 5765 5765 5765 5765 5765 5766 5765 5765 5766 5767 5768 5770 5771 5773 5776 5778 5780 5782 5784 5786 5787 5789 5791 5791 5792 5793 5796 5798 5801 5804 5805 5806 5809
5815 5813 5812 5811 5810 5809 5808 5807 5805 5804 5803 5802 5801 5800 5798 5797 5796 5795 5794 5792 5791 5790 5788 5787 5786 5784 5783 5781 5780 5778 5777 5775 5773 5772 5770 5769 5767 5766 5764 5763 5762 5761 5761 5761 5760 5760 5759 5759 5759 5759 5758 5758 5758 5758 5758 5758 5758 5758 5759 5759 5759 5759 5761 5762 5763 5765 5768 5770 5773 5775 5778 5780 5781 5783 5785 5786 5786 5787 5789 5791 5794 5798 5800 5802 5805
5811 5810 5809 5807 5806 5805 5804 5803 5802 5800 5799 5798 5796 5795 5794 5793 5791 5790 5789 5787 5786 5785 5783 5782 5780 5779 5777 5776 5774 5772 5771 5769 5767 5766 5764 5762 5761 5759 5757 5756 5754 5753 5753 5752 5752 5752 5751 5751 5750 5750 5750 5750 5750 5750 5750 5750 5750 5750 5751 5751 5751 5752 5753 5754 5756 5758 5760 5762 5765 5768 5770 5773 5775 5777 5778 5780 5780 5781 5783 5785 5788 5791 5795 5797 5800
5808 5806 5805 5804 5803 5801 5800 5799 5798 5797 5795 5794 5792 5791 5789 5788 5786 5785 5784 5783 5781 5780 5778 5776 5775 5773 5772 5770 5768 5766 5764 5762 5760 5759 5757 5756 5754 5753 5751 5749 5747 5746 5744 5744 5744 5743 5743 5742 5742 5741 5741 5742 5741 5741 5741 5742 5742 5742 5743 5744 5744 5744 5745 5746 5748 5750 5752 5754 5757 5760 5762 5765 5768 5770 5772 5773 5774 5775 5778 5780 5781 5784 5788 5791 5793
5804 5803 5801 5800 5799 5798 5797 5795 5794 5792 5791 5789 5788 5786 5785 5783 5781 5780 5779 5777 5776 5774 5773 5771 5769 5767 5766 5764 5762 5760 5758 5756 5754 5752 5750 5748 5747 5745 5744 5742 5740 5738 5737 5735 5734 5734 5734 5733 5733 5732 5732 5732 5732 5732 5733 5733 5733 5733 5734 5736 5737 5737 5737 5738 5739 5741 5743 5746 5748 5751 5754 5757 5760 5763 5765 5767 5767 5769 5772 5774 5776 5777 5780 5784 5787
5800 5799 5797 5796 5795 5793 5792 5791 5789 5788 5786 5784 5783 5781 5780 5778 5776 5774 5773 5771 5770 5769 5767 5765 5764 5762 5760 5758 5756 5753 5751 5749 5747 5745 5743 5741 5739 5737 5736 5735 5733 5732 5730 5728 5726 5725 5725 5725 5724 5724 5723 5723 5723 5723 5723 5724 5724 5724 5725 5727 5728 5729 5729 5730 5731 5732 5734 5737 5740 5742 5746 5748 5751 5755 5758 5760 5760 5762 5765 5767 5769 5770 5773 5777 5780
5795 5794 5792 5791 5790 5789 5787 5786 5784 5783 5781 5780 5778 5776 5775 5772 5771 5769 5767 5766 5764 5763 5761 5760 5758 5756 5754 5752 5749 5747 5744 5742 5740 5738 5736 5734 5732 5729 5727 5726 5725 5723 5722 5721 5719 5717 5715 5715 5715 5714 5714 5714 5714 5713 5713 5714 5715 5715 5715 5716 5718 5720 5721 5721 5722 5723 5725 5728 5731 5733 5736 5739 5743 5746 5750 5752 5753 5755 5758 5761 5763 5764 5767 5770 5773
5790 5789 5787 5786 5785 5784 5782 5781 5779 5778 5776 5775 5773 5771 5769 5767 5765 5763 5761 5760 5758 5757 5755 5753 5751 5749 5747 5745 5743 5740 5738 5735 5733 5730 5728 5726 5724 5722 5720 5717 5716 5714 5713 5712 5711 5709 5707 5706 5705 5705 5705 5704 5704 5703 5702 5703 5704 5704 5704 5705 5706 5709 5711 5711 5713 5714 5716 5718 5721 5724 5727 5730 5734 5737 5740 5744 5746 5747 5751 5754 5756 5758 5760 5763 5767
5785 5784 5782 5781 5780 5779 5777 5776 5775 5773 5771 5770 5768 5766 5764 5762 5760 5758 5756 5754 5752 5750 5748 5747 5745 5743 5741 5738 5735 5733 5730 5728 5725 5722 5720 5718 5715 5713 5711 5709 5708 5706 5704 5703 5702 5702 5700 5699 5697 5695 5695 5694 5694 5694 5692 5692 5693 5693 5693 5694 5695 5697 5699 5701 5703 5704 5705 5708 5711 5713 5717 5721 5724 5728 5731 5734 5737 5740 5743 5746 5748 5751 5754 5757 5760
5780 5779 5778 5776 5775 5774 5772 5771 5770 5768 5766 5764 5763 5761 5759 5757 5755 5752 5750 5748 5745 5744 5742 5740 5738 5736 5733 5731 5728 5725 5723 5720 5717 5715 5712 5709 5706 5704 5702 5700 5699 5698 5696 5694 5693 5692 5691 5691 5689 5687 5686 5685 5684 5684 5682 5682 5682 5682 5683 5683 5684 5686 5687 5689 5692 5693 5695 5697 5700 5702 5706 5710 5714 5718 5722 5726 5729 5731 5734 5738 5741 5743 5747 5751 5754
5776 5775 5773 5772 5771 5769 5768 5766 5764 5763 5761 5760 5758 5756 5754 5751 5749 5746 5744 5741 5739 5737 5735 5733 5730 5728 5726 5723 5721 5718 5715 5712 5709 5707 5703 5701 5698 5696 5694 5692 5690 5689 5687 5684 5683 5681 5680 5680 5678 5677 5677 5674 5673 5672 5671 5671 5672 5672 5672 5672 5674 5675 5676 5678 5680 5682 5684 5686 5688 5691 5695 5700 5704 5708 5713 5717 5720 5722 5725 5729 5733 5736 5740 5744 5747
5772 5770 5769 5767 5766 5764 5763 5761 5759 5758 5756 5754 5752 5750 5748 5745 5743 5741 5738 5735 5733 5730 5728 5725 5722 5720 5717 5715 5712 5709 5706 5703 5701 5698 5695 5692 5689 5687 5684 5683 5681 5679 5677 5675 5673 5671 5669 5668 5666 5664 5664 5664 5662 5661 5659 5659 5660 5660 5660 5661 5663 5664 5665 5668 5669 5670 5672 5674 5677 5680 5684 5689 5693 5699 5704 5707 5710 5713 5716 5720 5724 5729 5733 5737 5739
5767 5766 5764 5763 5762 5760 5758 5756 5754 5752 5751 5749 5747 5744 5742 5740 5737 5735 5732 5729 5727 5724 5720 5717 5715 5712 5709 5706 5704 5701 5697 5694 5691 5688 5684 5682 5679 5677 5674 5672 5671 5669 5667 5665 5663 5661 5659 5658 5656 5653 5652 5652 5652 5651 5649 5647 5647 5648 5649 5649 5651 5652 5655 5657 5658 5659 5660 5662 5666 5669 5673 5677 5682 5688 5693 5697 5701 5704 5707 5711 5716 5721 5725 5729 5732
5763 5761 5760 5758 5757 5755 5753 5751 5749 5747 5745 5743 5741 5738 5736 5734 5731 5729 5726 5723 5720 5717 5714 5710 5707 5704 5701 5698 5695 5692 5688 5685 5681 5678 5674 5671 5668 5666 5664 5662 5660 5658 5656 5654 5652 5650 5648 5647 5647 5645 5642 5641 5641 5640 5639 5637 5636 5636 5637 5638 5638 5639 5643 5645 5647 5648 5649 5651 5655 5658 5661 5665 5670 5675 5682 5687 5692 5695 5698 5702 5707 5711 5716 5721 5724
5758 5756 5755 5753 5752 5750 5748 5746 5743 5741 5739 5737 5735 5732 5730 5727 5725 5722 5719 5716 5713 5709 5706 5703 5699 5696 5693 5690 5686 5683 5680 5676 5672 5669 5666 5662 5659 5656 5653 5651 5649 5647 5645 5643 5641 5640 5638 5636 5635 5635 5634 5631 5630 5628 5626 5625 5624 5624 5625 5626 5626 5627 5629 5632 5634 5636 5639 5641 5644 5647 5649 5653 5658 5663 5670 5677 5682 5686 5689 5693 5697 5701 5708 5713 5715
5753 5751 5749 5748 5746 5744 5742 5740 5737 5735 5733 5731 5729 5726 5724 5721 5718 5715 5712 5708 5705 5701 5698 5695 5692 5688 5685 5682 5679 5675 5671 5668 5664 5661 5658 5654 5650 5647 5644 5642 5639 5637 5635 5633 5631 5629 5628 5626 5625 5624 5623 5622 5619 5617 5614 5610 5609 5611 5612 5612 5613 5614 5615 5618 5620 5624 5627 5630 5633 5636 5638 5641 5645 5651 5658 5666 5672 5676 5680 5684 5688 5692 5698 5704 5706
5748 5746 5744 5742 5740 5738 5736 5733 5731 5729 5727 5725 5723 5720 5717 5715 5712 5708 5704 5701 5697 5694 5690 5687 5684 5680 5677 5674 5671 5667 5663 5659 5656 5652 5649 5645 5641 5638 5635 5633 5630 5628 5626 5623 5622 5620 5618 5616 5615 5614 5612 5611 5609 5605 5601 5597 5595 5597 5597 5597 5600 5602 5603 5604 5607 5611 5614 5617 5621 5622 5626 5629 5633 5639 5646 5654 5660 5665 5669 5673 5677 5682 5688 5693 5697
5742 5740 5737 5736 5734 5732 5729 5727 5725 5722 5720 5719 5716 5714 5711 5708 5705 5701 5698 5694 5691 5687 5683 5680 5677 5673 5669 5666 5662 5658 5654 5650 5645 5642 5638 5634 5631 5628 5625 5622 5620 5618 5616 5614 5612 5610 5608 5606 5604 5604 5602 5599 5598 5594 5588 5584 5582 5583 5581 5581 5586 5590 5591 5591 5594 5599 5601 5603 5606 5609 5612 5617 5621 5628 5634 5640 5647 5652 5658 5662 5667 5673 5678 5684 5688
5735 5733 5731 5729 5727 5725 5723 5721 5718 5716 5715 5712 5710 5707 5705 5702 5698 5695 5691 5688 5684 5681 5677 5674 5671 5666 5662 5659 5655 5650 5645 5640 5635 5631 5627 5623 5620 5617 5614 5612 5609 5607 5606 5604 5602 5599 5597 5595 5593 5591 5591 5588 5587 5584 5578 5572 5570 5569 5566 5565 5571 5574 5576 5582 5584 5584 5587 5589 5592 5595 5599 5603 5609 5616 5621 5626 5632 5639 5646 5652 5657 5663 5669 5674 5679
5729 5727 5725 5723 5721 5719 5717 5715 5712 5711 5708 5706 5703 5700 5697 5694 5691 5687 5684 5681 5677 5674 5671 5667 5664 5660 5655 5651 5646 5642 5637 5631 5625 5621 5617 5613 5609 5606 5603 5601 5598 5596 5594 5593 5591 5588 5585 5583 5581 5578 5578 5576 5575 5573 5569 5564 5559 5556 5552 5552 5555 5555 5559 5571 5570 5568 5574 5575 5577 5581 5583 5589 5596 5603 5608 5613 5620 5627 5635 5642 5647 5653 5659 5665 5670
5723 5721 5719 5717 5715 5713 5711 5709 5707 5704 5702 5699 5696 5693 5690 5687 5683 5679 5676 5673 5669 5666 5663 5659 5655 5652 5648 5643 5638 5632 5628 5622 5617 5612 5608 5604 5600 5596 5593 5590 5588 5585 5584 5583 5581 5578 5575 5572 5569 5566 5564 5562 5561 5561 5559 5554 5548 5545 5540 5538 5540 5537 5542 5551 5549 5552 5561 5560 5561 5566 5568 5574 5583 5590 5595 5601 5608 5615 5623 5630 5635 5642 5648 5655 5661
5717 5715 5713 5711 5709 5708 5706 5703 5701 5698 5695 5692 5689 5686 5683 5679 5676 5672 5669 5665 5662 5658 5655 5652 5648 5645 5640 5634 5628 5621 5616 5611 5606 5601 5596 5593 5589 5586 5583 5580 5578 5575 5573 5572 5571 5568 5565 5562 5558 5555 5552 5548 5546 5546 5547 5543 5536 5533 5528 5524 5523 5521 5524 5529 5528 5534 5544 5544 5546 5551 5554 5561 5569 5576 5582 5588 5596 5603 5611 5618 5624 5631 5638 5645 5652
5711 5709 5708 5706 5703 5701 5700 5697 5694 5691 5688 5684 5682 5678 5675 5672 5668 5665 5662 5659 5656 5652 5649 5645 5641 5638 5632 5626 5619 5611 5604 5600 5595 5590 5585 5581 5578 5575 5572 5569 5567 5565 5563 5561 5559 5556 5553 5550 5547 5543 5540 5536 5532 5529 5531 5530 5523 5520 5515 5509 5507 5505 5506 5509 5509 5514 5523 5528 5532 5535 5540 5548 5554 5561 5569 5576 5585 5592 5599 5606 5612 5620 5626 5633 5641
5705 5704 5702 5700 5697 5695 5693 5690 5686 5683 5680 5677 5674 5671 5667 5664 5661 5657 5654 5651 5649 5646 5642 5638 5633 5629 5623 5616 5609 5602 5595 5589 5585 5580 5575 5571 5568 5564 5561 5559 5556 5554 5551 5549 5547 5544 5541 5538 5535 5531 5527 5523 5518 5514 5513 5512 5509 5505 5500 5492 5488 5488 5487 5488 5489 5492 5499 5510 5518 5521 5526 5533 5539 5547 5556 5564 5573 5579 5586 5594 5601 5608 5615 5622 5630
5700 5698 5696 5693 5691 5688 5685 5682 5679 5675 5673 5669 5666 5663 5660 5657 5653 5650 5647 5643 5641 5638 5634 5629 5624 5618 5612 5605 5599 5592 5586 5580 5574 5569 5565 5561 5557 5554 5551 5548 5546 5542 5540 5537 5534 5531 5528 5525 5522 5518 5515 5510 5504 5499 5495 5494 5491 5488 5482 5473 5468 5467 5466 5466 5468 5470 5476 5488 5501 5508 5511 5516 5523 5533 5543 5551 5560 5568 5575 5583 5590 5598 5606 5613 5620
5693 5691 5689 5687 5684 5681 5677 5674 5671 5668 5665 5662 5658 5655 5652 5649 5646 5643 5640 5637 5633 5630 5625 5620 5613 5606 5600 5594 5588 5582 5577 5571 5565 5559 5554 5550 5547 5544 5541 5538 5535 5532 5529 5525 5522 5519 5515 5512 5509 5505 5501 5496 5490 5484 5479 5476 5474 5470 5463 5453 5448 5445 5444 5445 5448 5451 5457 5466 5480 5493 5496 5498 5507 5520 5531 5539 5548 5557 5564 5571 5578 5587 5595 5603 5610
5686 5684 5681 5679 5676 5673 5669 5666 5663 5660 5657 5654 5651 5648 5644 5641 5638 5635 5632 5629 5625 5621 5616 5609 5602 5595 5590 5584 5578 5573 5567 5561 5556 5550 5544 5540 5537 5533 5530 5527 5524 5521 5518 5514 5510 5506 5502 5498 5495 5491 5488 5482 5476 5469 5464 5460 5456 5451 5444 5434 5428 5426 5424 5427 5431 5434 5440 5447 5460 5476 5482 5483 5493 5507 5519 5528 5537 5546 5553 5561 5568 5575 5584 5593 5601